User: anonymous   Login
Location: Chevoux
(46.3801°N, 4.9476°E)
Time: 19:21:41
(UTC+00:00)
Language:

Helios 1A Rocket - Orbit

View from above orbital plane
View from above orbital plane
View from above satellite
View from above satellite

Ground track
Ground track

The orbit data is extracted from the following two-line orbital elements,

1 23608U 95033D   21103.15203136  .00000139  00000-0  17631-4 0  9992
2 23608  98.2989 139.6047 0015931 333.5474  26.4931 14.97631194396608
Epoch (UTC): 13 April 2021 03:38:55
Eccentricity: 0.0015931
inclination: 98.2989°
perigee height: 563 km
apogee height: 585 km
right ascension of ascending node: 139.6047°
argument of perigee: 333.5474°
revolutions per day: 14.97631194
mean anomaly at epoch: 26.4931°
orbit number at epoch: 39660

The dashed part of the orbit path shows where the satellite is in the earth's shadow,  

DLR